Year,Month,Day,Hour,Minute,Value (Times are PST for barometer in hPa)
2008,02,13,03,50,1021.84
2008,02,13,03,51,1021.84
2008,02,13,06,00,1022.08
2008,02,13,06,01,1022.08
2008,02,13,06,02,1022.08
2008,02,13,06,03,1022.08
2008,02,13,11,09,993.07
2008,02,13,11,10,997.36
2008,02,13,11,22,997.22
2008,02,13,11,23,997.22
2008,02,13,11,24,997.22
2008,02,13,11,25,997.22
2008,02,13,11,26,997.22
2008,02,13,11,27,997.22
2008,02,13,11,28,997.22
2008,02,13,11,29,997.22
2008,02,13,12,12,1058.79
2008,02,13,12,13,1058.79
2008,02,13,12,14,1058.79
2008,02,13,12,15,1058.79
2008,02,13,12,16,1058.79
2008,02,13,12,17,1001.71
2008,02,13,12,18,998.71
2008,02,13,12,19,998.71
2008,02,13,12,20,998.71
2008,02,13,12,21,1058.35
2008,02,13,12,22,1058.35
2008,02,13,12,31,1058.45
2008,02,13,12,32,1058.45
2008,02,13,12,33,998.38
2008,02,13,12,34,998.38
2008,02,13,12,35,998.38
2008,02,13,12,36,998.38
2008,02,13,12,37,998.38
2008,02,13,12,38,998.38
2008,02,13,12,39,998.38
2008,02,13,12,40,998.38
2008,02,13,12,41,998.38
2008,02,13,12,42,998.38
2008,02,13,12,43,998.38
2008,02,13,12,44,998.38
2008,02,13,13,02,998.95
2008,02,13,13,03,998.95
2008,02,13,13,04,998.95
2008,02,13,13,05,998.95
2008,02,13,13,06,998.95
2008,02,13,13,07,998.95
2008,02,13,13,08,998.95
2008,02,13,13,09,998.95
2008,02,13,13,10,998.95
2008,02,13,13,11,1029.06
2008,02,13,13,12,1029.06
2008,02,13,13,13,1029.06
2008,02,13,13,14,1029.06
2008,02,13,13,36,999.05
2008,02,13,13,37,999.05
2008,02,13,14,28,997.17
2008,02,13,14,29,998.68
2008,02,13,14,30,998.68
2008,02,13,14,31,998.68
2008,02,13,14,32,998.68
2008,02,13,14,33,998.68
2008,02,13,14,34,998.68
2008,02,13,14,35,998.68
2008,02,13,14,36,998.68
2008,02,13,14,37,998.68
